Wetterdaten: Dienstag, 18.09.2007
Datum Zeit Temp. A. Feuchte A. Luftdruck Regen Wind Richtung Richtung Sonnenschein UV Solar Windben
18.09.2007 00:00 12,7 C 91 % 1006,6 hPa 0,0 mm 1,6 km/h (1 Bft) W-NW 292 0 min 0 UV-I 0 W/m 4,8 km/h (1 Bft)
18.09.2007 00:10 12,8 C 91 % 1006,6 hPa 0,0 mm 1,6 km/h (1 Bft) W-NW 292 0 min 0 UV-I 0 W/m 4,8 km/h (1 Bft)
18.09.2007 00:20 12,8 C 91 % 1006,7 hPa 0,0 mm 1,6 km/h (1 Bft) W-NW 292 0 min 0 UV-I 0 W/m 6,4 km/h (2 Bft)
18.09.2007 00:30 12,7 C 91 % 1006,5 hPa 0,0 mm 1,6 km/h (1 Bft) W-NW 292 0 min 0 UV-I 0 W/m 8,0 km/h (2 Bft)
18.09.2007 00:40 12,7 C 91 % 1006,3 hPa 0,0 mm 1,6 km/h (1 Bft) W 270 0 min 0 UV-I 0 W/m 6,4 km/h (2 Bft)
18.09.2007 00:50 12,7 C 92 % 1006,2 hPa 0,3 mm 3,2 km/h (1 Bft) W 270 0 min 0 UV-I 0 W/m 6,4 km/h (2 Bft)
18.09.2007 01:00 12,7 C 91 % 1006,2 hPa 0,0 mm 1,6 km/h (1 Bft) W 270 0 min 0 UV-I 0 W/m 4,8 km/h (1 Bft)
18.09.2007 01:10 12,6 C 91 % 1006,3 hPa 0,0 mm 4,8 km/h (1 Bft) W-NW 292 0 min 0 UV-I 0 W/m 11,3 km/h (2 Bft)
18.09.2007 01:20 12,3 C 92 % 1006,3 hPa 0,0 mm 4,8 km/h (1 Bft) W-NW 292 0 min 0 UV-I 0 W/m 16,1 km/h (3 Bft)
18.09.2007 01:30 12,2 C 91 % 1006,4 hPa 0,0 mm 6,4 km/h (2 Bft) W 270 0 min 0 UV-I 0 W/m 12,9 km/h (3 Bft)
18.09.2007 01:40 11,9 C 91 % 1006,2 hPa 0,3 mm 4,8 km/h (1 Bft) W 270 0 min 0 UV-I 0 W/m 20,9 km/h (4 Bft)
18.09.2007 01:50 11,7 C 91 % 1006,4 hPa 0,0 mm 4,8 km/h (1 Bft) W-NW 292 0 min 0 UV-I 0 W/m 14,5 km/h (3 Bft)
18.09.2007 02:00 11,6 C 91 % 1006,5 hPa 0,3 mm 4,8 km/h (1 Bft) NW 315 0 min 0 UV-I 0 W/m 11,3 km/h (2 Bft)
18.09.2007 02:10 11,5 C 92 % 1006,5 hPa 0,0 mm 4,8 km/h (1 Bft) W-NW 292 0 min 0 UV-I 0 W/m 14,5 km/h (3 Bft)
18.09.2007 02:20 11,4 C 92 % 1006,4 hPa 0,5 mm 4,8 km/h (1 Bft) W-NW 292 0 min 0 UV-I 0 W/m 12,9 km/h (3 Bft)
18.09.2007 02:30 11,4 C 92 % 1006,1 hPa 0,0 mm 3,2 km/h (1 Bft) N-NW 337 0 min 0 UV-I 0 W/m 8,0 km/h (2 Bft)
18.09.2007 02:40 11,5 C 92 % 1005,9 hPa 0,3 mm 1,6 km/h (1 Bft) W-NW 292 0 min 0 UV-I 0 W/m 6,4 km/h (2 Bft)
18.09.2007 02:50 11,5 C 92 % 1005,8 hPa 0,0 mm 1,6 km/h (1 Bft) W-NW 292 0 min 0 UV-I 0 W/m 8,0 km/h (2 Bft)
18.09.2007 03:00 11,5 C 92 % 1005,7 hPa 0,0 mm 1,6 km/h (1 Bft) N-NO 22 0 min 0 UV-I 0 W/m 8,0 km/h (2 Bft)
18.09.2007 03:10 11,4 C 92 % 1005,7 hPa 0,0 mm 1,6 km/h (1 Bft) N 360 0 min 0 UV-I 0 W/m 4,8 km/h (1 Bft)
18.09.2007 03:20 11,3 C 92 % 1006,0 hPa 0,0 mm 0,0 km/h (0 Bft) N-NO 22 0 min 0 UV-I 0 W/m 3,2 km/h (1 Bft)
18.09.2007 03:30 11,3 C 92 % 1005,9 hPa 0,0 mm 1,6 km/h (1 Bft) W-NW 292 0 min 0 UV-I 0 W/m 4,8 km/h (1 Bft)
18.09.2007 03:40 11,3 C 92 % 1005,8 hPa 0,0 mm 3,2 km/h (1 Bft) W 270 0 min 0 UV-I 0 W/m 8,0 km/h (2 Bft)
18.09.2007 03:50 11,2 C 92 % 1005,9 hPa 0,0 mm 3,2 km/h (1 Bft) W 270 0 min 0 UV-I 0 W/m 6,4 km/h (2 Bft)
18.09.2007 04:00 11,2 C 92 % 1006,0 hPa 0,0 mm 3,2 km/h (1 Bft) W 270 0 min 0 UV-I 0 W/m 8,0 km/h (2 Bft)
18.09.2007 04:10 11,2 C 92 % 1006,2 hPa 0,0 mm 3,2 km/h (1 Bft) W 270 0 min 0 UV-I 0 W/m 6,4 km/h (2 Bft)
18.09.2007 04:20 11,2 C 92 % 1006,1 hPa 0,3 mm 3,2 km/h (1 Bft) W 270 0 min 0 UV-I 0 W/m 8,0 km/h (2 Bft)
18.09.2007 04:30 11,1 C 92 % 1006,0 hPa 0,0 mm 3,2 km/h (1 Bft) W-NW 292 0 min 0 UV-I 0 W/m 8,0 km/h (2 Bft)
18.09.2007 04:40 11,0 C 92 % 1006,0 hPa 0,3 mm 3,2 km/h (1 Bft) W 270 0 min 0 UV-I 0 W/m 9,7 km/h (2 Bft)
18.09.2007 04:50 11,0 C 92 % 1006,1 hPa 0,3 mm 3,2 km/h (1 Bft) W 270 0 min 0 UV-I 0 W/m 8,0 km/h (2 Bft)
18.09.2007 05:00 11,0 C 92 % 1006,0 hPa 0,0 mm 1,6 km/h (1 Bft) W 270 0 min 0 UV-I 0 W/m 6,4 km/h (2 Bft)
18.09.2007 05:10 11,1 C 93 % 1006,0 hPa 0,3 mm 1,6 km/h (1 Bft) W-NW 292 0 min 0 UV-I 0 W/m 4,8 km/h (1 Bft)
18.09.2007 05:20 11,1 C 93 % 1006,1 hPa 0,3 mm 3,2 km/h (1 Bft) W-NW 292 0 min 0 UV-I 0 W/m 8,0 km/h (2 Bft)
18.09.2007 05:30 11,1 C 93 % 1006,2 hPa 0,3 mm 3,2 km/h (1 Bft) W 270 0 min 0 UV-I 0 W/m 8,0 km/h (2 Bft)
18.09.2007 05:40 11,2 C 93 % 1006,2 hPa 0,8 mm 3,2 km/h (1 Bft) W 270 0 min 0 UV-I 0 W/m 8,0 km/h (2 Bft)
18.09.2007 05:50 11,2 C 92 % 1006,3 hPa 0,3 mm 3,2 km/h (1 Bft) W-NW 292 0 min 0 UV-I 0 W/m 9,7 km/h (2 Bft)
18.09.2007 06:00 11,0 C 92 % 1006,2 hPa 0,0 mm 3,2 km/h (1 Bft) W-NW 292 0 min 0 UV-I 0 W/m 11,3 km/h (2 Bft)
18.09.2007 06:10 10,9 C 92 % 1006,4 hPa 0,0 mm 4,8 km/h (1 Bft) W-NW 292 0 min 0 UV-I 0 W/m 11,3 km/h (2 Bft)
18.09.2007 06:20 10,8 C 91 % 1006,5 hPa 0,3 mm 3,2 km/h (1 Bft) W 270 0 min 0 UV-I 0 W/m 8,0 km/h (2 Bft)
18.09.2007 06:30 10,8 C 91 % 1006,7 hPa 0,0 mm 1,6 km/h (1 Bft) NW 315 0 min 0 UV-I 0 W/m 6,4 km/h (2 Bft)
18.09.2007 06:40 10,8 C 91 % 1006,8 hPa 0,3 mm 1,6 km/h (1 Bft) W-NW 292 0 min 0 UV-I 0 W/m 3,2 km/h (1 Bft)
18.09.2007 06:50 10,8 C 92 % 1007,1 hPa 0,0 mm 0,0 km/h (0 Bft) W-NW 292 0 min 0 UV-I 0 W/m 3,2 km/h (1 Bft)
18.09.2007 07:00 10,9 C 92 % 1007,0 hPa 0,0 mm 0,0 km/h (0 Bft) W-NW 292 0 min 0 UV-I 0 W/m 4,8 km/h (1 Bft)
18.09.2007 07:10 10,9 C 92 % 1007,1 hPa 0,3 mm 1,6 km/h (1 Bft) W-NW 292 0 min 0 UV-I 0 W/m 4,8 km/h (1 Bft)
18.09.2007 07:20 10,8 C 92 % 1007,3 hPa 0,3 mm 0,0 km/h (0 Bft) W 270 0 min 0 UV-I 0 W/m 4,8 km/h (1 Bft)
18.09.2007 07:30 10,9 C 92 % 1007,4 hPa 0,0 mm 1,6 km/h (1 Bft) W 270 0 min 0 UV-I 0 W/m 6,4 km/h (2 Bft)
18.09.2007 07:40 10,9 C 92 % 1007,5 hPa 0,0 mm 1,6 km/h (1 Bft) W 270 0 min 0 UV-I 0 W/m 4,8 km/h (1 Bft)
18.09.2007 07:50 10,9 C 92 % 1007,6 hPa 0,0 mm 1,6 km/h (1 Bft) W-SW 247 0 min 0 UV-I 0 W/m 6,4 km/h (2 Bft)
18.09.2007 08:00 10,9 C 92 % 1007,7 hPa 0,5 mm 3,2 km/h (1 Bft) W-SW 247 0 min 0 UV-I 12 W/m 8,0 km/h (2 Bft)
18.09.2007 08:10 10,9 C 93 % 1007,8 hPa 0,3 mm 3,2 km/h (1 Bft) W 270 0 min 0 UV-I 18 W/m 9,7 km/h (2 Bft)
18.09.2007 08:20 10,9 C 93 % 1007,9 hPa 0,0 mm 3,2 km/h (1 Bft) W 270 0 min 0 UV-I 21 W/m 9,7 km/h (2 Bft)
18.09.2007 08:30 10,9 C 93 % 1007,9 hPa 0,0 mm 3,2 km/h (1 Bft) W 270 0 min 0 UV-I 12 W/m 6,4 km/h (2 Bft)
18.09.2007 08:40 11,0 C 93 % 1008,0 hPa 0,0 mm 4,8 km/h (1 Bft) W 270 0 min 0 UV-I 25 W/m 9,7 km/h (2 Bft)
18.09.2007 08:50 11,1 C 93 % 1008,1 hPa 0,0 mm 3,2 km/h (1 Bft) W 270 0 min 0 UV-I 91 W/m 6,4 km/h (2 Bft)
18.09.2007 09:00 11,3 C 93 % 1008,2 hPa 0,0 mm 3,2 km/h (1 Bft) W-SW 247 0 min 0 UV-I 93 W/m 14,5 km/h (3 Bft)
18.09.2007 09:10 11,3 C 93 % 1008,3 hPa 0,3 mm 3,2 km/h (1 Bft) W-NW 292 0 min 0 UV-I 30 W/m 9,7 km/h (2 Bft)
18.09.2007 09:20 11,3 C 93 % 1008,5 hPa 0,0 mm 4,8 km/h (1 Bft) W 270 0 min 0 UV-I 30 W/m 16,1 km/h (3 Bft)
18.09.2007 09:30 11,4 C 92 % 1008,8 hPa 0,0 mm 4,8 km/h (1 Bft) W-NW 292 0 min 0 UV-I 44 W/m 9,7 km/h (2 Bft)
18.09.2007 09:40 11,4 C 92 % 1008,8 hPa 0,0 mm 6,4 km/h (2 Bft) W 270 0 min 1 UV-I 91 W/m 17,7 km/h (3 Bft)
18.09.2007 09:50 11,5 C 91 % 1009,2 hPa 0,0 mm 6,4 km/h (2 Bft) W 270 0 min 1 UV-I 107 W/m 17,7 km/h (3 Bft)
18.09.2007 10:00 11,6 C 91 % 1009,5 hPa 0,0 mm 6,4 km/h (2 Bft) W-NW 292 0 min 1 UV-I 95 W/m 20,9 km/h (4 Bft)
18.09.2007 10:10 11,5 C 88 % 1009,7 hPa 0,0 mm 6,4 km/h (2 Bft) W-NW 292 0 min 1 UV-I 86 W/m 19,3 km/h (3 Bft)
18.09.2007 10:20 11,4 C 89 % 1010,0 hPa 0,5 mm 4,8 km/h (1 Bft) W 270 0 min 0 UV-I 67 W/m 19,3 km/h (3 Bft)
18.09.2007 10:30 11,2 C 90 % 1010,2 hPa 1,3 mm 4,8 km/h (1 Bft) W 270 0 min 0 UV-I 51 W/m 14,5 km/h (3 Bft)
18.09.2007 10:40 11,1 C 91 % 1010,2 hPa 0,3 mm 4,8 km/h (1 Bft) W 270 0 min 1 UV-I 134 W/m 16,1 km/h (3 Bft)
18.09.2007 10:50 11,3 C 92 % 1010,3 hPa 0,0 mm 4,8 km/h (1 Bft) NW 315 0 min 1 UV-I 218 W/m 14,5 km/h (3 Bft)
18.09.2007 11:00 11,7 C 91 % 1010,3 hPa 0,0 mm 6,4 km/h (2 Bft) W 270 0 min 1 UV-I 221 W/m 17,7 km/h (3 Bft)
18.09.2007 11:10 11,7 C 89 % 1010,4 hPa 0,0 mm 8,0 km/h (2 Bft) W 270 0 min 2 UV-I 295 W/m 17,7 km/h (3 Bft)
18.09.2007 11:20 11,8 C 88 % 1010,8 hPa 0,0 mm 8,0 km/h (2 Bft) W 270 10 min 2 UV-I 341 W/m 22,5 km/h (4 Bft)
18.09.2007 11:30 11,7 C 85 % 1011,0 hPa 0,0 mm 6,4 km/h (2 Bft) NW 315 0 min 1 UV-I 192 W/m 20,9 km/h (4 Bft)
18.09.2007 11:40 11,5 C 85 % 1011,2 hPa 0,0 mm 6,4 km/h (2 Bft) W-NW 292 0 min 1 UV-I 84 W/m 17,7 km/h (3 Bft)
18.09.2007 11:50 11,3 C 88 % 1011,6 hPa 0,0 mm 4,8 km/h (1 Bft) NW 315 0 min 0 UV-I 76 W/m 17,7 km/h (3 Bft)
18.09.2007 12:00 11,1 C 89 % 1011,7 hPa 0,3 mm 4,8 km/h (1 Bft) W 270 0 min 1 UV-I 84 W/m 9,7 km/h (2 Bft)
18.09.2007 12:10 10,9 C 90 % 1011,9 hPa 0,0 mm 4,8 km/h (1 Bft) W-NW 292 0 min 1 UV-I 141 W/m 11,3 km/h (2 Bft)
18.09.2007 12:20 11,3 C 90 % 1012,1 hPa 0,0 mm 4,7 km/h (1 Bft) NW 313 0 min 1 UV-I 185 W/m 9,7 km/h (2 Bft)
18.09.2007 12:30 11,4 C 90 % 1012,2 hPa 0,0 mm 5,6 km/h (1 Bft) W 273 0 min 1 UV-I 166 W/m 16,1 km/h (3 Bft)
18.09.2007 12:40 11,8 C 90 % 1012,3 hPa 0,0 mm 3,7 km/h (1 Bft) W-NW 299 0 min 1 UV-I 184 W/m 9,7 km/h (2 Bft)
18.09.2007 12:50 11,7 C 89 % 1012,4 hPa 0,0 mm 5,1 km/h (1 Bft) W-NW 283 0 min 1 UV-I 133 W/m 11,3 km/h (2 Bft)
18.09.2007 13:00 12,1 C 87 % 1012,6 hPa 0,0 mm 5,6 km/h (1 Bft) W 273 0 min 2 UV-I 272 W/m 11,3 km/h (2 Bft)
18.09.2007 13:10 12,3 C 85 % 1012,9 hPa 0,0 mm 5,1 km/h (1 Bft) W 270 0 min 2 UV-I 265 W/m 14,5 km/h (3 Bft)
18.09.2007 13:20 12,2 C 84 % 1013,1 hPa 0,0 mm 5,5 km/h (1 Bft) W-NW 284 0 min 0 UV-I 66 W/m 19,3 km/h (3 Bft)
18.09.2007 13:30 11,9 C 85 % 1013,3 hPa 0,0 mm 7,0 km/h (2 Bft) N-NO 12 0 min 1 UV-I 148 W/m 24,1 km/h (4 Bft)
18.09.2007 13:40 12,3 C 83 % 1013,5 hPa 0,0 mm 6,6 km/h (2 Bft) W-NW 300 0 min 2 UV-I 288 W/m 16,1 km/h (3 Bft)
18.09.2007 13:50 12,6 C 84 % 1013,7 hPa 0,0 mm 5,8 km/h (2 Bft) W 276 0 min 3 UV-I 340 W/m 17,7 km/h (3 Bft)
18.09.2007 14:00 13,1 C 82 % 1013,9 hPa 0,0 mm 7,7 km/h (2 Bft) W-NW 295 10 min 3 UV-I 628 W/m 22,5 km/h (4 Bft)
18.09.2007 14:10 13,4 C 73 % 1014,0 hPa 0,0 mm 8,1 km/h (2 Bft) N 5 10 min 2 UV-I 457 W/m 20,9 km/h (4 Bft)
18.09.2007 14:20 13,9 C 67 % 1014,0 hPa 0,0 mm 7,0 km/h (2 Bft) W-NW 288 10 min 3 UV-I 687 W/m 22,5 km/h (4 Bft)
18.09.2007 14:30 14,1 C 62 % 1014,1 hPa 0,0 mm 8,4 km/h (2 Bft) W-NW 297 10 min 3 UV-I 681 W/m 24,1 km/h (4 Bft)
18.09.2007 14:40 14,6 C 61 % 1014,2 hPa 0,0 mm 7,1 km/h (2 Bft) W 267 10 min 3 UV-I 741 W/m 22,5 km/h (4 Bft)
18.09.2007 14:50 13,0 C 67 % 1014,6 hPa 0,0 mm 11,7 km/h (2 Bft) NW 311 0 min 1 UV-I 154 W/m 27,4 km/h (4 Bft)
18.09.2007 15:00 12,8 C 69 % 1014,8 hPa 0,0 mm 8,7 km/h (2 Bft) N 349 10 min 2 UV-I 331 W/m 30,6 km/h (5 Bft)
18.09.2007 15:10 12,8 C 68 % 1015,0 hPa 0,0 mm 7,9 km/h (2 Bft) W-NW 288 10 min 2 UV-I 443 W/m 20,9 km/h (4 Bft)
18.09.2007 15:20 13,6 C 65 % 1015,0 hPa 0,0 mm 6,9 km/h (2 Bft) W-NW 302 10 min 3 UV-I 609 W/m 20,9 km/h (4 Bft)
18.09.2007 15:30 13,6 C 61 % 1015,2 hPa 0,0 mm 8,5 km/h (2 Bft) NW 304 10 min 2 UV-I 570 W/m 19,3 km/h (3 Bft)
18.09.2007 15:40 14,1 C 62 % 1015,2 hPa 0,0 mm 7,4 km/h (2 Bft) W-NW 295 10 min 2 UV-I 547 W/m 19,3 km/h (3 Bft)
18.09.2007 15:50 14,7 C 62 % 1015,3 hPa 0,0 mm 7,8 km/h (2 Bft) NW 306 10 min 2 UV-I 654 W/m 17,7 km/h (3 Bft)
18.09.2007 16:00 14,3 C 63 % 1015,3 hPa 0,0 mm 6,8 km/h (2 Bft) W 280 10 min 2 UV-I 385 W/m 17,7 km/h (3 Bft)
18.09.2007 16:10 14,6 C 63 % 1015,3 hPa 0,0 mm 5,7 km/h (1 Bft) W 279 10 min 2 UV-I 507 W/m 16,1 km/h (3 Bft)
18.09.2007 16:20 14,5 C 59 % 1015,4 hPa 0,0 mm 6,0 km/h (2 Bft) N-NW 336 10 min 1 UV-I 407 W/m 20,9 km/h (4 Bft)
18.09.2007 16:30 13,4 C 62 % 1015,8 hPa 0,0 mm 11,2 km/h (2 Bft) W 272 0 min 1 UV-I 103 W/m 29,0 km/h (5 Bft)
18.09.2007 16:40 13,9 C 58 % 1015,9 hPa 0,0 mm 8,3 km/h (2 Bft) W-NW 303 10 min 1 UV-I 450 W/m 22,5 km/h (4 Bft)
18.09.2007 16:50 14,4 C 52 % 1016,0 hPa 0,0 mm 7,7 km/h (2 Bft) NW 321 10 min 1 UV-I 436 W/m 27,4 km/h (4 Bft)
18.09.2007 17:00 14,2 C 55 % 1015,9 hPa 0,0 mm 7,4 km/h (2 Bft) W-NW 285 10 min 1 UV-I 398 W/m 19,3 km/h (3 Bft)
18.09.2007 17:10 13,9 C 52 % 1016,2 hPa 0,0 mm 8,2 km/h (2 Bft) W-NW 290 10 min 1 UV-I 260 W/m 25,7 km/h (4 Bft)
18.09.2007 17:20 14,0 C 50 % 1016,4 hPa 0,0 mm 9,6 km/h (2 Bft) N-NO 32 10 min 1 UV-I 300 W/m 24,1 km/h (4 Bft)
18.09.2007 17:30 13,8 C 51 % 1016,4 hPa 0,0 mm 10,4 km/h (2 Bft) W-NW 297 10 min 1 UV-I 327 W/m 27,4 km/h (4 Bft)
18.09.2007 17:40 13,9 C 52 % 1016,5 hPa 0,0 mm 9,5 km/h (2 Bft) W-SW 247 10 min 1 UV-I 294 W/m 22,5 km/h (4 Bft)
18.09.2007 17:50 13,9 C 53 % 1016,7 hPa 0,0 mm 9,7 km/h (2 Bft) NW 315 10 min 1 UV-I 276 W/m 24,1 km/h (4 Bft)
18.09.2007 18:00 13,4 C 55 % 1016,9 hPa 0,0 mm 8,0 km/h (2 Bft) W-NW 292 0 min 0 UV-I 69 W/m 19,3 km/h (3 Bft)
18.09.2007 18:10 13,1 C 56 % 1017,2 hPa 0,0 mm 8,0 km/h (2 Bft) W-NW 292 0 min 0 UV-I 91 W/m 25,7 km/h (4 Bft)
18.09.2007 18:20 12,8 C 59 % 1017,4 hPa 0,0 mm 8,0 km/h (2 Bft) NW 315 10 min 0 UV-I 258 W/m 20,9 km/h (4 Bft)
18.09.2007 18:30 12,8 C 60 % 1017,4 hPa 0,0 mm 8,0 km/h (2 Bft) W-NW 292 10 min 0 UV-I 255 W/m 19,3 km/h (3 Bft)
18.09.2007 18:40 12,4 C 60 % 1017,5 hPa 0,0 mm 6,4 km/h (2 Bft) W-NW 292 10 min 0 UV-I 134 W/m 19,3 km/h (3 Bft)
18.09.2007 18:50 12,3 C 58 % 1017,7 hPa 0,0 mm 8,0 km/h (2 Bft) W-NW 292 10 min 0 UV-I 111 W/m 24,1 km/h (4 Bft)
18.09.2007 19:00 12,2 C 60 % 1017,9 hPa 0,0 mm 8,0 km/h (2 Bft) W-NW 292 10 min 0 UV-I 81 W/m 17,7 km/h (3 Bft)
18.09.2007 19:10 11,8 C 62 % 1018,0 hPa 0,0 mm 6,4 km/h (2 Bft) W-NW 292 0 min 0 UV-I 23 W/m 20,9 km/h (4 Bft)
18.09.2007 19:20 11,6 C 63 % 1018,3 hPa 0,0 mm 6,4 km/h (2 Bft) W-NW 292 10 min 0 UV-I 14 W/m 17,7 km/h (3 Bft)
18.09.2007 19:30 11,3 C 65 % 1018,5 hPa 0,0 mm 6,4 km/h (2 Bft) W-NW 292 0 min 0 UV-I 7 W/m 16,1 km/h (3 Bft)
18.09.2007 19:40 11,1 C 67 % 1018,6 hPa 0,0 mm 4,8 km/h (1 Bft) W-NW 292 0 min 0 UV-I 0 W/m 16,1 km/h (3 Bft)
18.09.2007 19:50 10,8 C 68 % 1018,9 hPa 0,0 mm 4,8 km/h (1 Bft) W-NW 292 0 min 0 UV-I 0 W/m 19,3 km/h (3 Bft)
18.09.2007 20:00 10,8 C 69 % 1018,9 hPa 0,0 mm 6,4 km/h (2 Bft) W-NW 292 0 min 0 UV-I 0 W/m 17,7 km/h (3 Bft)
18.09.2007 20:10 10,8 C 69 % 1019,1 hPa 0,0 mm 4,8 km/h (1 Bft) W 270 0 min 0 UV-I 0 W/m 9,7 km/h (2 Bft)
18.09.2007 20:20 10,6 C 69 % 1019,3 hPa 0,0 mm 3,2 km/h (1 Bft) W-NW 292 0 min 0 UV-I 0 W/m 8,0 km/h (2 Bft)
18.09.2007 20:30 10,2 C 69 % 1019,5 hPa 0,0 mm 3,2 km/h (1 Bft) W-NW 292 0 min 0 UV-I 0 W/m 11,3 km/h (2 Bft)
18.09.2007 20:40 10,1 C 69 % 1019,7 hPa 0,0 mm 3,2 km/h (1 Bft) W 270 0 min 0 UV-I 0 W/m 12,9 km/h (3 Bft)
18.09.2007 20:50 9,9 C 71 % 1019,9 hPa 0,0 mm 3,2 km/h (1 Bft) W 270 0 min 0 UV-I 0 W/m 6,4 km/h (2 Bft)
18.09.2007 21:00 9,7 C 72 % 1020,0 hPa 0,0 mm 3,2 km/h (1 Bft) W 270 0 min 0 UV-I 0 W/m 8,0 km/h (2 Bft)
18.09.2007 21:10 9,6 C 73 % 1020,0 hPa 0,0 mm 1,6 km/h (1 Bft) W 270 0 min 0 UV-I 0 W/m 6,4 km/h (2 Bft)
18.09.2007 21:20 9,4 C 75 % 1020,0 hPa 0,0 mm 1,6 km/h (1 Bft) W 270 0 min 0 UV-I 0 W/m 4,8 km/h (1 Bft)
18.09.2007 21:30 9,3 C 75 % 1020,1 hPa 0,0 mm 1,6 km/h (1 Bft) W 270 0 min 0 UV-I 0 W/m 4,8 km/h (1 Bft)
18.09.2007 21:40 9,3 C 77 % 1020,3 hPa 0,0 mm 1,6 km/h (1 Bft) W 270 0 min 0 UV-I 0 W/m 4,8 km/h (1 Bft)
18.09.2007 21:50 9,1 C 79 % 1020,4 hPa 0,0 mm 0,0 km/h (0 Bft) W 270 0 min 0 UV-I 0 W/m 3,2 km/h (1 Bft)
18.09.2007 22:00 8,8 C 80 % 1020,5 hPa 0,0 mm 0,0 km/h (0 Bft) W 270 0 min 0 UV-I 0 W/m 3,2 km/h (1 Bft)
18.09.2007 22:10 8,6 C 80 % 1020,6 hPa 0,0 mm 1,6 km/h (1 Bft) W 270 0 min 0 UV-I 0 W/m 4,8 km/h (1 Bft)
18.09.2007 22:20 8,5 C 81 % 1020,7 hPa 0,0 mm 1,6 km/h (1 Bft) SW 225 0 min 0 UV-I 0 W/m 6,4 km/h (2 Bft)
18.09.2007 22:30 8,5 C 81 % 1020,8 hPa 0,0 mm 3,2 km/h (1 Bft) W-SW 247 0 min 0 UV-I 0 W/m 9,7 km/h (2 Bft)
18.09.2007 22:40 8,6 C 81 % 1020,9 hPa 0,0 mm 3,2 km/h (1 Bft) W-SW 247 0 min 0 UV-I 0 W/m 11,3 km/h (2 Bft)
18.09.2007 22:50 8,6 C 81 % 1020,9 hPa 0,0 mm 1,6 km/h (1 Bft) W-SW 247 0 min 0 UV-I 0 W/m 6,4 km/h (2 Bft)
18.09.2007 23:00 8,4 C 82 % 1021,0 hPa 0,0 mm 1,6 km/h (1 Bft) W-SW 247 0 min 0 UV-I 0 W/m 6,4 km/h (2 Bft)
18.09.2007 23:10 8,1 C 83 % 1021,1 hPa 0,0 mm 1,6 km/h (1 Bft) W-SW 247 0 min 0 UV-I 0 W/m 4,8 km/h (1 Bft)
18.09.2007 23:20 8,0 C 83 % 1021,2 hPa 0,0 mm 3,2 km/h (1 Bft) W 270 0 min 0 UV-I 0 W/m 9,7 km/h (2 Bft)
18.09.2007 23:30 8,0 C 82 % 1021,2 hPa 0,0 mm 3,2 km/h (1 Bft) W-SW 247 0 min 0 UV-I 0 W/m 9,7 km/h (2 Bft)
18.09.2007 23:40 8,0 C 82 % 1021,2 hPa 0,0 mm 3,2 km/h (1 Bft) W 270 0 min 0 UV-I 0 W/m 9,7 km/h (2 Bft)
18.09.2007 23:50 8,0 C 82 % 1021,3 hPa 0,0 mm 3,2 km/h (1 Bft) W-SW 247 0 min 0 UV-I 0 W/m 9,7 km/h (2 Bft)
_ Min-Zeit 23:20 17:20 03:00 - 03:20 - - - - - 03:20
Minimum _ 8,0 C 50 % 1005,7 hPa - 0,0 km/h (0 Bft) - - - - - 3,2 km/h (1 Bft)
_ Max-Zeit 16:20 05:10 23:50 10:30 14:50 - - 11:20 14:20 14:40 15:00
Maximum _ 14,8 C 93 % 1021,3 hPa 1,3 mm 11,7 km/h
NW (2 Bft)
- - 10 min 3 UV-I 741 W/m 30,6 km/h
N (5 Bft)
Durchschnitt _ 11,5 C 81 % 1012,2 hPa #8,4 mm 4,5 km/h (1 Bft) W-NW - #4:50 h 1 UV-I 234 W/m 13,0 km/h (3 Bft)